Weather History for Evergreen, AL

Change the Weather History Date:

Saturday, March 2, 2013

  Actual Average (KPRN) Record (KPRN)
Temperature  
Mean Temperature 39 °F -  
Max Temperature 45 °F 70 °F 84 °F (1932)
Min Temperature 33 °F 43 °F 18 °F (1980)
Degree Days  
Heating Degree Days 26    
Moisture  
Dew Point 25 °F    
Average Humidity 58    
Maximum Humidity 75    
Minimum Humidity 42    
Precipitation  
Precipitation 0.00 in - - ()
Sea Level Pressure  
Sea Level Pressure 30.14 in    
Wind  
Wind Speed 4 mph (NW)    
Max Wind Speed 13 mph    
Max Gust Speed 21 mph    
Visibility 10 miles    
Events      
Averages and records for this station are not official NWS values.
T = Trace of Precipitation, MM = Missing Value Source: NWS Daily Summary

Daily Weather History Graph

Daily Weather History Graph

Search for Another Location

Airport:

Trip Planner

Search our weather history database for the weather conditions in past years. The results will help you decide how hot, cold, wet, or windy it might be!

Date:

Astronomy

Mar. 02, 2013 Rise Set
Actual Time 6:13 AM CST 5:47 PM CST
Civil Twilight 5:49 AM CST 6:11 PM CST
Nautical Twilight 5:21 AM CST 6:39 PM CST
Astronomical Twilight 4:53 AM CST 7:07 PM CST
Moon 11:02 PM CST (3/2) 9:03 AM CST (3/2)
Length of Visible Light 12h 22m
Length of Day
11h 33m
Waning Gibbous, 74% of the Moon is Illuminated
Mar 2
Waning Gibbous
Mar 4
Last Quarter
Mar 11
New
Mar 19
First Quarter
Mar 27
Full

Hourly Weather History & Observations

Time (CST) Temp. Windchill Dew Point Humidity Pressure Visibility Wind Dir Wind Speed Gust Speed Precip Events Conditions
12:53 AM 37.9 °F - 28.0 °F 68% 30.13 in 10.0 mi Calm Calm - N/A   Overcast
1:53 AM 39.0 °F - 28.0 °F 65% 30.12 in 10.0 mi Calm Calm - N/A   Overcast
2:53 AM 37.9 °F - 28.0 °F 68% 30.10 in 10.0 mi Calm Calm - N/A   Overcast
3:53 AM 37.0 °F - 26.1 °F 65% 30.10 in 10.0 mi Calm Calm - N/A   Partly Cloudy
4:53 AM 34.0 °F - 27.0 °F 75% 30.11 in 10.0 mi Calm Calm - N/A   Clear
5:53 AM 33.1 °F - 26.1 °F 75% 30.12 in 10.0 mi Calm Calm - N/A   Clear
6:53 AM 34.0 °F 31.0 °F 27.0 °F 75% 30.14 in 10.0 mi Variable 3.5 mph - N/A   Clear
7:53 AM 37.9 °F 33.5 °F 27.0 °F 65% 30.16 in 10.0 mi NW 5.8 mph - N/A   Clear
8:53 AM 41.0 °F 35.8 °F 26.1 °F 55% 30.17 in 10.0 mi NW 8.1 mph - N/A   Clear
9:53 AM 42.1 °F 37.7 °F 21.9 °F 45% 30.17 in 10.0 mi Variable 6.9 mph - N/A   Mostly Cloudy
10:53 AM 42.1 °F 36.6 °F 21.9 °F 45% 30.16 in 10.0 mi NW 9.2 mph 19.6 mph N/A   Overcast
11:53 AM 45.0 °F 41.2 °F 23.0 °F 42% 30.14 in 10.0 mi Variable 6.9 mph - N/A   Overcast
12:53 PM 43.0 °F 36.4 °F 23.0 °F 45% 30.12 in 10.0 mi NNW 12.7 mph 20.7 mph N/A   Overcast
1:53 PM 43.0 °F 38.2 °F 23.0 °F 45% 30.11 in 10.0 mi NW 8.1 mph 20.7 mph N/A   Overcast
2:53 PM 42.1 °F 36.1 °F 23.0 °F 47% 30.11 in 10.0 mi NNW 10.4 mph 16.1 mph N/A   Overcast
3:53 PM 41.0 °F 35.2 °F 24.1 °F 51% 30.12 in 10.0 mi NW 9.2 mph - N/A   Overcast
4:53 PM 39.9 °F 35.1 °F 25.0 °F 55% 30.14 in 10.0 mi NNW 6.9 mph 17.3 mph N/A   Overcast
5:53 PM 39.9 °F 34.5 °F 25.0 °F 55% 30.15 in 10.0 mi NNW 8.1 mph 17.3 mph N/A   Overcast
7:53 PM 39.0 °F 34.0 °F 25.0 °F 57% 30.18 in 10.0 mi North 6.9 mph - N/A   Overcast
8:53 PM 39.0 °F 34.0 °F 24.1 °F 55% 30.19 in 10.0 mi NNW 6.9 mph 16.1 mph N/A   Overcast
9:53 PM 37.9 °F 32.7 °F 24.1 °F 57% 30.18 in 10.0 mi NW 6.9 mph - N/A   Overcast
10:53 PM 37.9 °F 30.9 °F 24.1 °F 57% 30.19 in 10.0 mi NNW 10.4 mph - N/A   Overcast
11:53 PM 37.0 °F 31.6 °F 25.0 °F 62% 30.18 in 10.0 mi Variable 6.9 mph - N/A   Overcast